[[{"header":{"parameterUnit":"m.s-1","parameterCategory":1,"la1":30.2991,"la2":30.254,"lo1":-89.0895,"lo2":-89.0444,"dy":0.0017,"dx":0.0017,"nx":28,"ny":28,"refTime":"2023-10-11T21:00:00:Z","depth":0,"parameterNumber":2,"parameterNumberName":"U-component_of_WINDS"},"data":[0,0,0,0,0,0,0,0,0,0,0,0,0,0,0,0,0,0,0,0,0,0,0,0,0,0,0,0,0,0,0,0,0,0,0,0,0,0,0,0,0,0,0,0,0,0,0,0,0,0,0,0,0,0,0,0,0,0,-1.0597,-1.0597,0,-1.0625,-1.0625,-1.0625,-1.0596,-1.0595,-1.0594,-1.0593,-1.0622,-1.0624,-1.0625,0,0,0,0,0,0,0,0,0,0,0,0,0,-1.0518,-1.052,-1.0597,-1.0597,-1.0597,-1.0625,-1.0625,-1.0625,-1.0596,-1.0595,-1.0594,-1.0592,-1.0621,-1.0623,-1.0626,0,0,0,0,0,0,0,0,0,0,0,0,0,-1.055,-1.052,-1.0597,-1.0586,-1.0586,-1.0625,-1.0625,-1.0626,-1.0597,-1.0595,-1.0593,-1.0592,-1.062,-1.0623,-1.0626,-1.0677,0,0,-1.0634,-1.0635,0,0,0,0,0,0,0,0,-1.0548,-1.0553,-1.0587,-1.0587,-1.0586,-1.0605,-1.0608,-1.0643,-1.0597,-1.0593,-1.0593,-1.0591,-1.0618,-1.0621,-1.0629,-1.0678,-1.0679,-1.0634,-1.0636,-1.0637,-1.0638,0,0,0,0,0,0,0,-1.0546,-1.0552,-1.0608,-1.0588,-1.0587,-1.058,-1.0583,-1.0614,-1.0614,-1.0593,-1.0591,-1.0594,-1.0617,-1.0627,-1.063,-1.068,-1.0634,-1.0637,-1.0638,-1.064,-1.0771,-1.0772,0,0,0,0,0,0,-1.0545,-1.055,-1.0607,-1.0609,-1.0563,-1.0583,-1.0586,-1.0601,-1.0614,-1.0614,-1.0596,-1.0593,-1.0623,-1.0627,-1.0631,-1.0691,-1.0637,-1.064,-1.0641,-1.0769,-1.0771,-1.0773,0,0,0,0,0,0,-1.0543,-1.055,-1.0606,-1.0579,-1.0585,-1.0586,-1.0603,-1.0602,-1.0612,-1.0616,-1.0616,-1.0606,-1.0622,-1.0627,-1.0665,-1.0691,-1.0641,-1.0644,-1.0767,-1.0769,-1.0772,-1.0811,0,0,0,0,0,0,-1.0541,-1.055,-1.0569,-1.0579,-1.0587,-1.064,-1.0605,-1.0604,-1.0617,-1.0613,-1.0626,-1.0626,-1.0621,-1.0661,-1.0668,-1.0694,-1.0646,-1.0764,-1.0768,-1.0771,-1.0807,-1.0815,-1.0821,0,0,0,0,0,-1.0539,-1.0579,-1.057,-1.0577,-1.0611,-1.0641,-1.0646,-1.0639,-1.0619,-1.0638,-1.0641,-1.0626,-1.0687,-1.0666,-1.0673,-1.07,-1.0762,-1.0767,-1.0771,-1.0804,-1.0813,-1.0821,0,0,0,0,0,0,-1.0573,-1.0581,-1.0571,-1.0616,-1.0628,-1.0636,-1.0661,-1.0649,-1.0667,-1.0663,-1.0654,-1.0657,-1.0698,-1.0703,-1.0678,-1.075,-1.0722,-1.0728,-1.0745,-1.0753,-1.076,-1.0758,-1.0648,0,0,0,0,0,-1.0585,-1.0609,-1.0615,-1.0654,-1.0661,-1.066,-1.0673,-1.0667,-1.0679,-1.0684,-1.0689,-1.0702,-1.0724,-1.0739,-1.076,-1.0808,-1.081,-1.083,-1.0837,-1.0843,-1.0848,-1.0873,-1.0882,-1.0786,-1.0786,-1.0786,0,0,-1.0612,-1.0619,-1.0635,-1.0661,-1.067,-1.0695,-1.0664,-1.0692,-1.0711,-1.0688,-1.0725,-1.0729,-1.0743,-1.0786,-1.0805,-1.0791,-1.0875,-1.0848,-1.0853,-1.0854,-1.0878,-1.0887,-1.0895,-1.0789,-1.0789,-1.0788,0,0,-1.0673,-1.0681,-1.0714,-1.0724,-1.0737,-1.0736,-1.0744,-1.0754,-1.0756,-1.0793,-1.0776,-1.0798,-1.0837,-1.0847,-1.0857,-1.0922,-1.0908,-1.0929,-1.0964,-1.0989,-1.0997,-1.1003,-1.1026,-1.1034,-1.0934,-1.0934,-1.0934,0,-1.0704,-1.0741,-1.0733,-1.0762,-1.0774,-1.0755,-1.0788,-1.0798,-1.0818,-1.0826,-1.0811,-1.0858,-1.0866,-1.0911,-1.0927,-1.0936,-1.0945,-1.0927,-1.0996,-1.1003,-1.1009,-1.103,-1.1039,-1.0936,-1.0936,-1.0936,-1.0936,0,-1.0778,-1.0804,-1.083,-1.0849,-1.0864,-1.0895,-1.0892,-1.0908,-1.09,-1.0901,-1.0938,-1.0947,-1.0969,-1.0979,-1.0972,-1.1023,-1.1014,-1.0998,-1.0969,-1.102,-1.104,-1.1049,-1.094,-1.0939,-1.0938,-1.0938,0,0,-1.0861,-1.0876,-1.0885,-1.0893,-1.0907,-1.0927,-1.0957,-1.0978,-1.0992,-1.1007,-1.1031,-1.1064,-1.1049,-1.1061,-1.1055,-1.1077,-1.1127,-1.1057,-1.1057,-1.1069,-1.1183,-1.1195,-1.1205,-1.1118,-1.1119,-1.1121,-1.1182,0,-1.0922,-1.0975,-1.0968,-1.1018,-1.1042,-1.1024,-1.105,-1.1061,-1.1063,-1.1083,-1.1084,-1.1108,-1.1086,-1.1093,-1.1114,-1.1116,-1.1149,-1.1112,-1.1141,-1.1142,-1.1137,-1.1215,-1.1228,-1.1285,-1.1189,-1.1191,-1.1192,0,-1.1,-1.1017,-1.1069,-1.1079,-1.1089,-1.1112,-1.1131,-1.1151,-1.1163,-1.1162,-1.1175,-1.1165,-1.1196,-1.1167,-1.1208,-1.1183,-1.1194,-1.1197,-1.1199,-1.1202,-1.117,-1.1219,-1.1303,-1.1312,-1.1204,-1.1203,-1.1202,0,-1.1055,-1.1091,-1.1126,-1.1134,-1.1146,-1.1163,-1.1169,-1.118,-1.1193,-1.1209,-1.1218,-1.1238,-1.1248,-1.1264,-1.126,-1.1239,-1.1302,-1.1273,-1.1302,-1.1302,-1.1315,-1.1315,-1.1402,-1.1324,-1.1324,-1.1324,-1.1323,0,-1.1123,-1.1156,-1.1151,-1.1173,-1.1209,-1.1201,-1.1237,-1.1241,-1.125,-1.1272,-1.1258,-1.128,-1.1273,-1.1294,-1.1291,-1.1325,-1.133,-1.133,-1.1329,-1.1331,-1.1331,-1.1338,-1.1334,-1.1326,-1.1325,-1.1325,-1.1324,0,-1.119,-1.1188,-1.1226,-1.1234,-1.1237,-1.1263,-1.127,-1.1291,-1.1291,-1.132,-1.1326,-1.1326,-1.135,-1.1347,-1.1374,-1.1372,-1.1414,-1.1409,-1.141,-1.1409,-1.1438,-1.1435,-1.1533,-1.1545,-1.1459,-1.146,-1.146,0,-1.1234,-1.1258,-1.1269,-1.1283,-1.129,-1.1313,-1.1326,-1.1319,-1.1333,-1.1349,-1.1368,-1.139,-1.1408,-1.1447,-1.1449,-1.1469,-1.1464,-1.1497,-1.1467,-1.1468,-1.1464,-1.1462,-1.1464,-1.1502,-1.1503,-1.1504,-1.1505,0,-1.1311,-1.1309,-1.1328,-1.1347,-1.1363,-1.1378,-1.1392,-1.1404,-1.1399,-1.1415,-1.1439,-1.1453,-1.148,-1.1502,-1.1522,-1.1527,-1.1515,-1.1514,-1.1522,-1.1524,-1.1524,-1.1524,-1.1426,-1.1512,-1.1511,-1.1511,-1.151,-1.151,-1.1367,-1.1388,-1.1399,-1.1421,-1.143,-1.1443,-1.1463,-1.1465,-1.1485,-1.1506,-1.1501,-1.1529,-1.154,-1.1564,-1.1572,-1.1593,-1.1581,-1.1592,-1.1595,-1.1598,-1.1601,-1.1521,-1.1596,-1.1596,-1.1596,-1.1596,-1.1596,0,-1.1443,-1.1449,-1.1469,-1.1489,-1.1506,-1.1493,-1.1507,-1.1522,-1.1546,-1.1558,-1.1575,-1.1603,-1.1624,-1.1629,-1.1649,-1.1665,-1.166,-1.1671,-1.1669,-1.1671,-1.1611,-1.1602,-1.1674,-1.1674,-1.1674,-1.1674,-1.1674,-1.1674,-1.1485,-1.1519,-1.1518,-1.1557,-1.1563,-1.1589,-1.1598,-1.161,-1.1619,-1.165,-1.1668,-1.167,-1.1679,-1.17,-1.1719,-1.172,-1.1728,-1.1741,-1.1739,-1.1683,-1.1675,-1.1667,-1.1659,-1.1743,-1.1743,-1.1797,-1.1798,-1.1798]},{"header":{"parameterUnit":"m.s-1","parameterCategory":1,"la1":30.2991,"la2":30.254,"lo1":-89.0895,"lo2":-89.0444,"dy":0.0017,"dx":0.0017,"nx":28,"ny":28,"refTime":"2023-10-11T21:00:00:Z","depth":0,"parameterNumber":3,"parameterNumberName":"V-component_of_WINDS"},"data":[0,0,0,0,0,0,0,0,0,0,0,0,0,0,0,0,0,0,0,0,0,0,0,0,0,0,0,0,0,0,0,0,0,0,0,0,0,0,0,0,0,0,0,0,0,0,0,0,0,0,0,0,0,0,0,0,0,0,-2.0299,-2.0299,0,-2.031,-2.031,-2.031,-2.0289,-2.0288,-2.0288,-2.0287,-2.0297,-2.0298,-2.0299,0,0,0,0,0,0,0,0,0,0,0,0,0,-2.0261,-2.0261,-2.0299,-2.0299,-2.0299,-2.031,-2.031,-2.031,-2.0289,-2.0288,-2.0287,-2.0287,-2.0297,-2.0298,-2.0299,0,0,0,0,0,0,0,0,0,0,0,0,0,-2.0275,-2.0262,-2.0299,-2.029,-2.029,-2.031,-2.031,-2.031,-2.0289,-2.0288,-2.0287,-2.0286,-2.0296,-2.0298,-2.0299,-2.0328,0,0,-2.0303,-2.0304,0,0,0,0,0,0,0,0,-2.0274,-2.0276,-2.0292,-2.0291,-2.029,-2.0297,-2.03,-2.0316,-2.029,-2.0289,-2.0287,-2.0286,-2.0298,-2.0299,-2.0303,-2.0328,-2.0329,-2.0303,-2.0304,-2.0305,-2.0305,0,0,0,0,0,0,0,-2.0273,-2.0276,-2.0303,-2.0292,-2.0291,-2.0286,-2.0286,-2.0303,-2.0299,-2.0289,-2.0288,-2.0289,-2.0297,-2.0302,-2.0303,-2.0329,-2.0303,-2.0304,-2.0305,-2.0306,-2.0377,-2.0378,0,0,0,0,0,0,-2.0273,-2.0275,-2.0303,-2.0304,-2.028,-2.0287,-2.0288,-2.0296,-2.0299,-2.0298,-2.029,-2.0288,-2.03,-2.0302,-2.0303,-2.0337,-2.0305,-2.0306,-2.0307,-2.0376,-2.0377,-2.0379,0,0,0,0,0,0,-2.0273,-2.0276,-2.0303,-2.0289,-2.0292,-2.0289,-2.0298,-2.0297,-2.0301,-2.03,-2.0299,-2.0296,-2.0299,-2.0302,-2.0322,-2.0337,-2.0306,-2.0308,-2.0375,-2.0376,-2.0378,-2.0404,0,0,0,0,0,0,-2.0272,-2.0276,-2.0287,-2.0289,-2.0293,-2.0321,-2.0299,-2.0298,-2.0304,-2.0301,-2.0305,-2.0304,-2.0299,-2.032,-2.0323,-2.0338,-2.0309,-2.0373,-2.0376,-2.0377,-2.0402,-2.0406,-2.041,0,0,0,0,0,-2.027,-2.0294,-2.0288,-2.0291,-2.0307,-2.0322,-2.0324,-2.0317,-2.0305,-2.0316,-2.0315,-2.0304,-2.0335,-2.0322,-2.0326,-2.0341,-2.0372,-2.0375,-2.0377,-2.04,-2.0405,-2.041,0,0,0,0,0,0,-2.0293,-2.0294,-2.0287,-2.0312,-2.0317,-2.0318,-2.0332,-2.0323,-2.0332,-2.0329,-2.0321,-2.0322,-2.0343,-2.0344,-2.033,-2.0369,-2.0351,-2.0355,-2.0367,-2.0373,-2.0377,-2.0376,-2.031,0,0,0,0,0,-2.0301,-2.0314,-2.0314,-2.0336,-2.0339,-2.0335,-2.0341,-2.0336,-2.0341,-2.0343,-2.0343,-2.0348,-2.0358,-2.0366,-2.0375,-2.0402,-2.0402,-2.0414,-2.0419,-2.0422,-2.0425,-2.0438,-2.0444,-2.0387,-2.0387,-2.0387,0,0,-2.0318,-2.032,-2.0328,-2.0341,-2.0344,-2.0357,-2.0337,-2.0352,-2.0361,-2.0345,-2.0364,-2.0364,-2.0369,-2.0392,-2.0402,-2.0394,-2.0441,-2.0425,-2.0428,-2.0429,-2.0441,-2.0447,-2.0451,-2.0388,-2.0388,-2.0388,0,0,-2.0355,-2.0358,-2.0376,-2.038,-2.0385,-2.0382,-2.0387,-2.0389,-2.0389,-2.0408,-2.0396,-2.0407,-2.0425,-2.0429,-2.0433,-2.0471,-2.0461,-2.0475,-2.0497,-2.051,-2.0514,-2.0518,-2.0531,-2.0536,-2.0478,-2.0478,-2.0478,0,-2.0375,-2.0394,-2.0387,-2.0402,-2.0408,-2.0394,-2.0412,-2.0416,-2.0424,-2.0428,-2.0418,-2.0441,-2.0443,-2.0467,-2.0476,-2.048,-2.0485,-2.0474,-2.0514,-2.0518,-2.0522,-2.0534,-2.0539,-2.0479,-2.0479,-2.0479,-2.0479,0,-2.0418,-2.0431,-2.0446,-2.0454,-2.0461,-2.0478,-2.0473,-2.0481,-2.0475,-2.0473,-2.0492,-2.0494,-2.0504,-2.0509,-2.0504,-2.0532,-2.0527,-2.0516,-2.0498,-2.0529,-2.054,-2.0545,-2.0481,-2.0481,-2.048,-2.048,0,0,-2.0469,-2.0473,-2.0478,-2.0481,-2.0486,-2.0496,-2.0512,-2.0522,-2.0529,-2.0535,-2.0547,-2.0564,-2.0553,-2.0558,-2.0553,-2.0565,-2.0594,-2.0552,-2.0552,-2.0559,-2.0625,-2.0633,-2.0638,-2.0588,-2.0588,-2.0589,-2.0624,0,-2.0505,-2.0533,-2.0527,-2.0554,-2.0566,-2.0553,-2.0567,-2.0571,-2.057,-2.0579,-2.0578,-2.0589,-2.0575,-2.0578,-2.0589,-2.0588,-2.0607,-2.0585,-2.0599,-2.06,-2.0598,-2.0644,-2.0653,-2.0686,-2.0629,-2.0629,-2.063,0,-2.0551,-2.0558,-2.0587,-2.0589,-2.0594,-2.0606,-2.0614,-2.0624,-2.0628,-2.0626,-2.0632,-2.0624,-2.064,-2.0622,-2.0643,-2.0629,-2.0634,-2.0634,-2.0635,-2.0636,-2.0616,-2.0646,-2.0696,-2.0701,-2.0637,-2.0636,-2.0636,0,-2.0584,-2.0602,-2.0621,-2.0624,-2.0627,-2.0636,-2.0638,-2.0641,-2.0647,-2.0654,-2.0658,-2.0667,-2.0672,-2.0679,-2.0673,-2.0661,-2.0695,-2.0677,-2.0694,-2.0694,-2.0701,-2.07,-2.0752,-2.0705,-2.0705,-2.0705,-2.0705,0,-2.0625,-2.0643,-2.0636,-2.0648,-2.0667,-2.066,-2.0679,-2.0679,-2.0682,-2.0693,-2.0683,-2.0693,-2.0686,-2.0696,-2.0692,-2.071,-2.0712,-2.0711,-2.0709,-2.0711,-2.0712,-2.0714,-2.0712,-2.0706,-2.0706,-2.0706,-2.0706,0,-2.0666,-2.0662,-2.0682,-2.0683,-2.0684,-2.0698,-2.0699,-2.071,-2.0708,-2.0722,-2.0725,-2.0722,-2.0733,-2.0729,-2.074,-2.0738,-2.076,-2.0756,-2.0759,-2.0757,-2.0774,-2.0772,-2.0829,-2.0836,-2.0785,-2.0785,-2.0786,0,-2.0692,-2.0705,-2.0708,-2.0714,-2.0717,-2.0728,-2.0734,-2.0727,-2.0734,-2.074,-2.075,-2.076,-2.0768,-2.0786,-2.0785,-2.0794,-2.079,-2.0809,-2.0791,-2.0792,-2.0789,-2.0788,-2.0789,-2.0812,-2.0813,-2.0813,-2.0814,0,-2.0738,-2.0735,-2.0744,-2.0753,-2.0761,-2.0767,-2.0772,-2.0779,-2.0772,-2.078,-2.0792,-2.0798,-2.081,-2.082,-2.0828,-2.0829,-2.082,-2.082,-2.0824,-2.0826,-2.0827,-2.0826,-2.0768,-2.0818,-2.0818,-2.0817,-2.0817,-2.0817,-2.0771,-2.0782,-2.0786,-2.0796,-2.08,-2.0805,-2.0815,-2.0814,-2.0824,-2.0833,-2.0829,-2.0842,-2.0845,-2.0855,-2.0858,-2.0867,-2.086,-2.0866,-2.0868,-2.0869,-2.0871,-2.0825,-2.0869,-2.0869,-2.0869,-2.0869,-2.0868,0,-2.0816,-2.0818,-2.0828,-2.0836,-2.0844,-2.0835,-2.084,-2.0848,-2.0859,-2.0864,-2.0872,-2.0884,-2.0894,-2.0894,-2.0903,-2.0911,-2.0907,-2.0913,-2.0912,-2.0913,-2.0877,-2.0873,-2.0916,-2.0916,-2.0916,-2.0916,-2.0916,-2.0916,-2.084,-2.0858,-2.0856,-2.0876,-2.0877,-2.089,-2.0894,-2.0898,-2.0902,-2.0916,-2.0925,-2.0924,-2.0926,-2.0935,-2.0944,-2.0943,-2.0947,-2.0955,-2.0953,-2.092,-2.0915,-2.0911,-2.0906,-2.0956,-2.0956,-2.0987,-2.0987,-2.0988]}]]